Showing default

TJS-14, 62804

Orbit data source: Space-Track

TJS-14, 62804 is a payload satellite owned by PLA SSF (CN) in GEO that was launched on Thu, 23 Jan 2025 UTC via a CHANG ZHENG 3B launch vehicle from the Xichang Space Center, China (XSC). Payload-class satellites include a variety of spacecraft equipped with specific instruments for various scientific and technological missions. These include communications satellites like Starlink; space stations such as the ISS; scientific satellites like the Hubble; Earth observation satellites from companies like Planet Labs, Umbra, and HawkEye 360; GPS; miniature CubeSats for education and research; and military/defense satellites.

Not visible in the next 10 days
Identifier
62804, 2025-017A
Orbit
GEO
Country
Flag of CNCN / PRC
Related business
Manufacturer
SISE
Mission
Operational Defense Sigint
Bus & Motor
FY-4?, LAE
Mass
~5,000 kg wet, ~2,500 kg dry
Launch date (UTC)
2025-01-23 (11 months ago)
Launch vehicle
CHANG ZHENG 3B
Launch site
Xichang Space Center, China (XSC)
Object type
Payload
Rocket body
Debris
Shape & HBR
Box + 2 Pan, 22.5 m
Radar Cross Section
34.063 m², Large (>1 m²)

Expand to show TLE details & history
Last TLE update: 9 hours ago

TLE from 9 hours ago
0 TJS-14
1 62804U 25017A   25352.84296600  .00000141  00000-0  00000-0 0  9993
2 62804   1.2115 287.7878 0003534  18.5062 103.2407  1.00270835  3462
Epoch: 2025-12-18T20:13Z
TLE epoch observation values (Epoch: 2025-12-18T20:13:52.262Z)
Latitude
1.05499°
Longitude
18.40486°
Altitude
35,789.713 km
Speed
3.074 km/s
True Right ascension
03h 18m 15s
True Declination
1° 03' 14"
Sunlit
Object was in daylight at epoch
Visualization orbit readout
Latitude
Unknown
Longitude
Unknown
Altitude
Unknown
Speed
Unknown
Apparent Right ascension
Unknown
Apparent Declination
Unknown
Sunlit
N/A
Visualization observer readout
Local Sidereal Time
03:41:58
Azimuth
Unknown
Elevation
Unknown
Doppler factor
Unknown
Orbital elements
Apogee altitude
35,802.832 km
Perigee altitude
35,773.029 km
Semi-major axis
42,166.068 km
Eccentricity
0.00035
Inclination
1.2115°
RAAN
287.7878°
Arg. of periapsis
18.5062°
True anomaly
103.28012°
Mean anomaly
103.2407°
Eccentric anomaly
103.26041°
Mean motion
0.25067 °/min
Orbital period
1,436.16 mins
BSTAR
0
Loading maneuver chart data...
Computing Atmospheric mass density...
Loading historical data...
Loading historical data...
Loading historical data...
Loading historical data...
Loading historical data...
Loading historical data...
Loading historical data...
Other satellites on launch #17 in the year 2025 (2025-01-23 UTC)

Documentation

Showing up to 5 results
|